Flag for New Zealand Weather past 2 weeks in Christchurch, New Zealand

Now
46 °F

Cool.


Feels Like: 46 °F
Forecast: 33 / 52 °F
Wind: 2 mph from West

Location: Christchurch Airport

Current Time: Jul 23, 2014 at 8:19:35 PM

Latest Report: Jul 23, 2014 at 5:30 PM


Visibility: N/A

Pressure: 29.77 "Hg

Humidity: 87%

Dew point: 43 °F

Location of ChristchurchLocation

Historic Weather in Christchurch — Graph

°F

Christchurch temperature yesterday

Maximum temperature yesterday: 48 °F (at 1:00 PM)
Minimum temperature yesterday: 37 °F (at 3:00 AM)
Average temperature yesterday: 43 °F

Past Weeks' High & Low Weather Summary

 TemperatureHumidityPressure
High63 °F (Jul 13, 2:30 PM)100% (Jul 8, 7:00 PM)30.36 "Hg (Jul 8, 7:00 PM)
Low27 °F (Jul 15, 4:00 AM)39% (Jul 13, 3:30 PM)29.53 "Hg (Jul 20, 9:00 PM)
Average44 °F86%29.91 "Hg
* Reported Jul 8 5:00 PM — Jul 23 5:30 PM, Christchurch, Weather by CustomWeather, © 2014

Note: Actual official high and low records may vary slightly from our data, if they occured in-between our weather recording intervals... More about our weather records

Advertising

Christchurch weather history for previous 24 hours

 ConditionsComfort  
Time TempWeatherWind HumidityBarometerVisibility
5:30 PM
Jul 23
46 °FCool.2 mph87%29.77 "HgN/A
5:00 PM48 °FCool.2 mph87%29.77 "HgN/A
4:30 PM50 °FCool.2 mph82%29.77 "HgN/A
4:00 PM48 °FCool.8 mph87%29.77 "HgN/A
3:30 PM48 °FScattered clouds.5 mph87%29.77 "HgN/A
2:30 PM50 °FPartly sunny.12 mph88%29.77 "HgN/A
2:00 PM50 °FBroken clouds.13 mph88%29.77 "HgN/A
1:30 PM48 °FSprinkles. Scattered clouds.10 mph94%29.80 "HgN/A
1:00 PM46 °FSprinkles. Cloudy.13 mph100%29.80 "HgN/A
12:30 PM50 °FScattered clouds.9 mph76%29.80 "HgN/A
12:00 PM50 °FScattered showers. Partly sunny.9 mph76%29.80 "HgN/A
11:00 AM48 °FBroken clouds.3 mph82%29.83 "HgN/A
4:30 AM48 °FSprinkles. Overcast.8 mph71%29.77 "HgN/A
4:00 AM46 °FSprinkles. Overcast.9 mph71%29.77 "HgN/A
3:30 AM48 °FOvercast.10 mph66%29.77 "HgN/A
3:00 AM48 °FSprinkles. Overcast.13 mph66%29.77 "HgN/A
2:30 AM48 °FSprinkles. Passing clouds.10 mph66%29.77 "HgN/A
2:00 AM48 °FSprinkles. Mostly cloudy.12 mph66%29.74 "HgN/A
1:30 AM48 °FPartly cloudy.12 mph62%29.74 "HgN/A
1:00 AM48 °FPassing clouds.13 mph62%29.74 "HgN/A
12:30 AM48 °FPassing clouds.16 mph62%29.74 "HgN/A
12:00 AM48 °FSprinkles. Passing clouds.18 mph66%29.74 "HgN/A
11:30 PM
Jul 22
48 °FPartly cloudy.22 mph66%29.74 "HgN/A
11:00 PM46 °FDrizzle. Mostly cloudy.17 mph66%29.77 "HgN/A
10:30 PM48 °FPassing clouds.15 mph62%29.74 "HgN/A
10:00 PM48 °FPartly cloudy.17 mph62%29.74 "HgN/A
9:30 PM48 °FPassing clouds.20 mph62%29.74 "HgN/A
9:00 PM48 °FOvercast.18 mph62%29.74 "HgN/A
8:30 PM46 °FOvercast.15 mph66%29.74 "HgN/A
8:00 PM45 °FPassing clouds.12 mph71%29.74 "HgN/A
Weather by CustomWeather, © 2014

See weather overviewHow to use our weather pages